Philadelphia, PA

6:50 AM EST on November 21, 2019 (GMT -0500)
Philadelphia International

Weather History for KPHL - May, 2019

Change the Weather History Date:

Friday, May 24, 2019

  Actual Average Record
Temperature  
Mean Temperature 74 °F 66 °F  
Max Temperature 82 °F 76 °F 90 °F (1964)
Min Temperature 65 °F 57 °F 40 °F (1963)
Degree Days  
Heating Degree Days 0 2  
Month to date heating degree days 74 99  
Since 1 July heating degree days 4359 4589  
Cooling Degree Days 9 4  
Month to date cooling degree days 59 47  
Year to date cooling degree days 83 60  
Growing Degree Days 24 (Base 50)    
Moisture  
Dew Point 56 °F    
Average Humidity 63    
Maximum Humidity 93    
Minimum Humidity 33    
Precipitation  
Precipitation 0.06 in 0.12 in 2.49 in (1999)
Month to date precipitation 4.43 2.84  
Year to date precipitation 18.49 15.87  
Snow  
Snow 0.00 in 0.00 in T in (2000)
Month to date snowfall 0.0 0.0  
Since 1 July snowfall 17.1 22.4  
Snow Depth 0.00 in    
Sea Level Pressure  
Sea Level Pressure 29.95 in    
Wind  
Wind Speed 15 mph (WNW)    
Max Wind Speed 29 mph    
Max Gust Speed 37 mph    
Visibility 10 miles    
Events Rain , Thunderstorm    
T = Trace of Precipitation, MM = Missing Value Source: NWS Daily Summary

Daily Weather History Graph

Daily Weather History Graph

Search for Another Location

Airport or City:

Astronomy

May. 24, 2019 Rise Set
Actual Time 5:39 AM EDT 8:16 PM EDT
Civil Twilight 5:07 AM EDT 8:48 PM EDT
Nautical Twilight 4:28 AM EDT 9:27 PM EDT
Astronomical Twilight 3:44 AM EDT 10:11 PM EDT
Moon 12:40 AM EDT (5/24) 10:37 AM EDT (5/24)
Length of Visible Light 15h 40m
Length of Day
14h 37m
Waning Gibbous, 69% of the Moon is Illuminated
May 24
Waning Gibbous
May 26
Last Quarter
Jun 3
New
Jun 10
First Quarter
Jun 17
Full

Hourly Weather History & Observations

Time (EDT) Temp. Dew Point Humidity Pressure Visibility Wind Dir Wind Speed Gust Speed Precip Events Conditions
12:08 AM 69.1 °F 66.0 °F 90% 29.90 in 7.0 mi WSW 11.5 mph - 0.07 in Rain , Thunderstorm Thunderstorms and Rain
12:16 AM 69.1 °F 66.0 °F 90% 29.90 in 10.0 mi WSW 8.1 mph - 0.07 in Rain Light Rain
12:54 AM 69.1 °F 66.0 °F 90% 29.88 in 10.0 mi SW 9.2 mph - 0.07 in   Scattered Clouds
1:45 AM 69.1 °F 66.0 °F 90% 29.88 in 10.0 mi WSW 9.2 mph - N/A Thunderstorm Mostly Cloudy
1:48 AM 69.8 °F 66.2 °F 88% 29.89 in 10.0 mi WSW 10.4 mph - N/A Thunderstorm Thunderstorm
1:54 AM 69.1 °F 66.0 °F 90% 29.88 in 7.0 mi WSW 20.7 mph 28.8 mph 0.02 in Rain , Thunderstorm Thunderstorms and Rain
2:00 AM 69.1 °F 66.0 °F 90% 29.88 in 10.0 mi West 13.8 mph 28.8 mph 0.04 in Rain , Thunderstorm Light Thunderstorms and Rain
2:05 AM 70.0 °F 64.9 °F 84% 29.88 in 10.0 mi West 15.0 mph - 0.04 in   Overcast
2:54 AM 68.0 °F 64.9 °F 90% 29.87 in 10.0 mi West 9.2 mph - 0.04 in   Scattered Clouds
3:54 AM 66.9 °F 64.9 °F 93% 29.86 in 10.0 mi WSW 10.4 mph - N/A   Clear
4:54 AM 69.1 °F 63.0 °F 81% 29.87 in 10.0 mi West 8.1 mph - N/A   Clear
5:54 AM 66.0 °F 60.1 °F 81% 29.90 in 10.0 mi West 10.4 mph - N/A   Partly Cloudy
6:54 AM 69.1 °F 55.9 °F 63% 29.93 in 10.0 mi WNW 12.7 mph - N/A   Partly Cloudy
7:54 AM 69.1 °F 54.0 °F 58% 29.94 in 10.0 mi WNW 6.9 mph - N/A   Scattered Clouds
8:54 AM 71.1 °F 48.9 °F 45% 29.96 in 10.0 mi NW 20.7 mph 31.1 mph N/A   Partly Cloudy
9:54 AM 73.0 °F 46.0 °F 38% 29.94 in 10.0 mi WNW 19.6 mph 36.8 mph N/A   Partly Cloudy
10:54 AM 73.9 °F 46.9 °F 38% 29.95 in 10.0 mi NW 19.6 mph 32.2 mph N/A   Partly Cloudy
11:54 AM 75.9 °F 48.0 °F 37% 29.96 in 10.0 mi NNW 23.0 mph - N/A   Partly Cloudy
12:54 PM 77.0 °F 48.0 °F 36% 29.98 in 10.0 mi NW 21.9 mph 29.9 mph N/A   Partly Cloudy
1:54 PM 78.1 °F 48.9 °F 36% 29.97 in 10.0 mi NNW 17.3 mph 27.6 mph N/A   Scattered Clouds
2:54 PM 79.0 °F 48.9 °F 35% 29.97 in 10.0 mi NW 19.6 mph 28.8 mph N/A   Scattered Clouds
3:54 PM 81.0 °F 48.9 °F 33% 29.97 in 10.0 mi NW 19.6 mph 29.9 mph N/A   Scattered Clouds
4:54 PM 81.0 °F 48.9 °F 33% 29.98 in 10.0 mi NW 16.1 mph - N/A   Scattered Clouds
5:54 PM 81.0 °F 50.0 °F 34% 30.00 in 10.0 mi NNW 16.1 mph 23.0 mph N/A   Scattered Clouds
6:54 PM 79.0 °F 50.0 °F 36% 30.02 in 10.0 mi NNW 13.8 mph 23.0 mph N/A   Mostly Cloudy
7:54 PM 78.1 °F 48.9 °F 36% 30.04 in 10.0 mi North 10.4 mph - N/A   Overcast
8:54 PM 75.0 °F 50.0 °F 41% 30.06 in 10.0 mi North 13.8 mph - N/A   Overcast
9:54 PM 72.0 °F 50.0 °F 46% 30.09 in 10.0 mi NE 11.5 mph 21.9 mph N/A   Mostly Cloudy
10:54 PM 69.1 °F 50.0 °F 51% 30.09 in 10.0 mi NE 11.5 mph 18.4 mph N/A   Partly Cloudy
11:54 PM 66.0 °F 50.0 °F 56% 30.12 in 10.0 mi NE 11.5 mph - N/A   Partly Cloudy